New Castle, PA

3:34 PM EDT on May 26, 2017 (GMT -0400)
New Castle Municipal

Weather History for KUCP - October, 2011

Change the Weather History Date:

Wednesday, October 19, 2011

  Actual Average Record
Temperature  
Mean Temperature 55 °F -  
Max Temperature 65 °F 60 °F 84 °F (1953)
Min Temperature 45 °F 37 °F 25 °F (1959)
Degree Days  
Heating Degree Days 10    
Growing Degree Days 5 (Base 50)    
Moisture  
Dew Point 50 °F    
Average Humidity 80    
Maximum Humidity 94    
Minimum Humidity 63    
Precipitation  
Precipitation 0.00 in - - ()
Sea Level Pressure  
Sea Level Pressure 29.44 in    
Wind  
Wind Speed 9 mph (East)    
Max Wind Speed 18 mph    
Max Gust Speed 25 mph    
Visibility 9 miles    
Events Rain    
Averages and records for this station are not official NWS values.
T = Trace of Precipitation, MM = Missing Value Source: NWS Daily Summary

Daily Weather History Graph

Daily Weather History Graph

Search for Another Location

Airport or City:

Trip Planner

Search our weather history database for the weather conditions in past years. The results will help you decide how hot, cold, wet, or windy it might be!

Date:

Astronomy

Oct. 19, 2011 Rise Set
Actual Time 7:37 AM EDT 6:35 PM EDT
Civil Twilight 7:09 AM EDT 7:03 PM EDT
Nautical Twilight 6:37 AM EDT 7:35 PM EDT
Astronomical Twilight 6:05 AM EDT 8:06 PM EDT
Moon No Moon Rise 2:08 PM EDT (10/19)
Length of Visible Light 11h 53m
Length of Day
10h 58m
Waning Gibbous, 55% of the Moon is Illuminated
Oct 19
Waning Gibbous
Oct 19
Last Quarter
Oct 26
New
Nov 2
First Quarter
Nov 10
Full

Hourly Weather History & Observations

Time (EDT) Temp. Windchill Dew Point Humidity Pressure Visibility Wind Dir Wind Speed Gust Speed Precip Events Conditions
12:56 AM 45.9 °F 43.6 °F 38.8 °F 76% 29.72 in 10.0 mi NE 4.6 mph - N/A   Clear
1:56 AM 47.8 °F - 39.9 °F 74% 29.73 in 10.0 mi West 8.1 mph - N/A   Mostly Cloudy
2:56 AM 47.8 °F - 41.9 °F 80% 29.71 in 10.0 mi Variable 6.9 mph - N/A   Partly Cloudy
3:56 AM 46.9 °F - 41.9 °F 83% 29.70 in 10.0 mi NNE 9.2 mph - N/A   Clear
4:56 AM 46.9 °F - 43.0 °F 86% 29.67 in 10.0 mi NNE 8.1 mph - N/A   Clear
5:56 AM 46.9 °F - 43.0 °F 86% 29.64 in 10.0 mi NE 8.1 mph - N/A   Clear
6:56 AM 45.9 °F 43.6 °F 41.9 °F 86% 29.63 in 10.0 mi NE 4.6 mph - N/A   Clear
7:56 AM 46.9 °F - 43.0 °F 86% 29.63 in 10.0 mi NE 5.8 mph - N/A   Clear
8:56 AM 52.0 °F - 46.9 °F 83% 29.62 in 10.0 mi ENE 6.9 mph - N/A   Mostly Cloudy
9:56 AM 55.9 °F - 48.9 °F 77% 29.60 in 10.0 mi East 10.4 mph - N/A   Partly Cloudy
10:56 AM 63.0 °F - 52.0 °F 67% 29.57 in 10.0 mi ESE 10.4 mph - N/A   Partly Cloudy
11:56 AM 65.8 °F - 52.9 °F 63% 29.53 in 10.0 mi ESE 9.2 mph - N/A   Scattered Clouds
1:56 PM 64.9 °F - 52.0 °F 63% 29.47 in 10.0 mi ESE 11.5 mph - N/A   Overcast
2:56 PM 61.9 °F - 54.9 °F 78% 29.42 in 10.0 mi ENE 6.9 mph - 0.00 in   Overcast
3:56 PM 63.9 °F - 54.0 °F 70% 29.37 in 10.0 mi East 10.4 mph - N/A   Overcast
4:56 PM 64.9 °F - 54.0 °F 68% 29.34 in 10.0 mi East 17.3 mph - N/A   Overcast
5:22 PM 64.4 °F - 55.4 °F 73% 29.28 in 10.0 mi East 12.7 mph - N/A   Overcast
5:56 PM 63.9 °F - 54.9 °F 72% 29.30 in 10.0 mi East 18.4 mph - N/A   Overcast
6:56 PM 63.0 °F - 54.9 °F 75% 29.27 in 10.0 mi East 17.3 mph - N/A   Overcast
7:56 PM 63.0 °F - 54.9 °F 75% 29.24 in 10.0 mi East 15.0 mph - N/A   Overcast
8:56 PM 63.0 °F - 54.9 °F 75% 29.23 in 10.0 mi East 11.5 mph - N/A   Overcast
9:56 PM 59.0 °F - 56.8 °F 93% 29.27 in 2.0 mi South 8.1 mph - 0.00 in Rain Light Rain
9:59 PM 59.0 °F - 55.4 °F 88% 29.23 in 1.8 mi South 9.2 mph - 0.00 in Rain Light Rain
10:09 PM 57.2 °F - 55.4 °F 94% 29.24 in 2.0 mi SSW 11.5 mph - 0.00 in Rain Light Rain
10:19 PM 57.2 °F - 55.4 °F 94% 29.24 in 3.0 mi Variable 6.9 mph - 0.00 in Rain Light Rain
10:36 PM 55.4 °F - 53.6 °F 94% 29.26 in 7.0 mi SSW 15.0 mph 25.3 mph 0.00 in Rain Light Rain
10:56 PM 54.0 °F - 50.9 °F 89% 29.31 in 10.0 mi SW 11.5 mph 24.2 mph 0.00 in   Overcast
11:30 PM 53.6 °F - 48.2 °F 82% 29.24 in 10.0 mi SSW 5.8 mph - N/A   Scattered Clouds